STARLINK-4647 (53608 NORAD) Tracking and Keplerian Element Data

This shows tracking and keplerian element data for the satellite.

Feedback or suggestion? Click here.




ElementValue
Catalog53608
NameSTARLINK-4647
Epoch Orbit130
Epoch Day324.91667824
Epoch Year2022
RAAN242.7361
Inclination53.2163
Eccentricity0.0001887
Argument of Perigee46.9454
Mean Anonmoly272.3882
Mean Motion15.08852608
Decay Rate-0.00024272
L11 53608U 22104W 22324.91667824 -.00024272 00000+0 -15115-2 0 9990
L22 53608 53.2163 242.7361 0001887 46.9454 272.3882 15.08852608 1304



Live tracking and technical data element details for STARLINK-4647 (NORAD 53608). STARLINK-4647 can be tracked NOW for your location showing map with azimuth and elevation plus other details from your city location.







IsCatalogInMostPopularTable: catalog: 53608, numindb: 3
Update: records affected: 1



GetName: 53608 STARLINK-4647

Hit Count: updated at: Thu, 08 Dec 2022 19:20:56 GMT